• In Russia
  • List of Countries
  • For 7 days
  • Water Temperature
  • Weather Map
  • Weather Widgets
  • user-avatar
    Login

    Hourly Weather Salva

    Today, 6 June, Saturday

    Time Temperature Precipitation Wind Pressure Humidity
    00:00 +38°C° 0 mm 6 mps 751 mmHg 23%
    01:00 +38°C° 0 mm 6 mps 751 mmHg 25%
    02:00 +38°C° 0 mm 7 mps 751 mmHg 26%
    03:00 +37°C° 0 mm 8 mps 750 mmHg 27%
    04:00 +37°C° 0 mm 8 mps 751 mmHg 30%
    05:00 +37°C° 0 mm 8 mps 751 mmHg 33%
    06:00 +37°C° 0 mm 8 mps 752 mmHg 36%
    07:00 +40°C° 0 mm 8 mps 752 mmHg 30%
    08:00 +43°C° 0 mm 9 mps 752 mmHg 24%
    09:00 +47°C° 0 mm 10 mps 752 mmHg 17%
    10:00 +48°C° 0 mm 10 mps 752 mmHg 16%
    11:00 +49°C° 0 mm 11 mps 751 mmHg 14%
    12:00 +51°C° 0 mm 11 mps 751 mmHg 12%
    13:00 +49°C° 0 mm 11 mps 751 mmHg 13%
    14:00 +49°C° 0 mm 12 mps 750 mmHg 14%
    15:00 +49°C° 0 mm 12 mps 750 mmHg 14%
    16:00 +47°C° 0 mm 11 mps 750 mmHg 16%
    17:00 +45°C° 0 mm 10 mps 750 mmHg 18%
    18:00 +43°C° 0 mm 9 mps 751 mmHg 20%
    19:00 +41°C° 0 mm 8 mps 751 mmHg 23%
    20:00 +40°C° 0 mm 7 mps 751 mmHg 27%
    21:00 +37°C° 0 mm 5 mps 751 mmHg 31%
    22:00 +37°C° 0 mm 5 mps 750 mmHg 31%
    23:00 +38°C° 0 mm 6 mps 750 mmHg 32%

    Tomorrow, 7 June, Sunday

    Time Temperature Precipitation Wind Pressure Humidity
    00:00 +36°C° 0 mm 6 mps 750 mmHg 32%
    01:00 +36°C° 0 mm 6 mps 750 mmHg 33%
    02:00 +36°C° 0 mm 6 mps 750 mmHg 34%
    03:00 +35°C° 0 mm 7 mps 750 mmHg 35%
    04:00 +35°C° 0 mm 7 mps 750 mmHg 38%
    05:00 +35°C° 0 mm 7 mps 751 mmHg 40%
    06:00 +35°C° 0 mm 7 mps 751 mmHg 42%
    07:00 +39°C° 0 mm 9 mps 751 mmHg 34%
    08:00 +43°C° 0 mm 10 mps 751 mmHg 25%
    09:00 +47°C° 0 mm 12 mps 751 mmHg 16%
    10:00 +48°C° 0 mm 12 mps 751 mmHg 14%
    11:00 +48°C° 0 mm 12 mps 751 mmHg 13%
    12:00 +49°C° 0 mm 12 mps 751 mmHg 11%
    13:00 +49°C° 0 mm 12 mps 750 mmHg 11%
    14:00 +49°C° 0 mm 12 mps 750 mmHg 12%
    15:00 +49°C° 0 mm 12 mps 750 mmHg 12%
    16:00 +47°C° 0 mm 10 mps 750 mmHg 14%
    17:00 +45°C° 0 mm 8 mps 750 mmHg 15%
    18:00 +42°C° 0 mm 6 mps 750 mmHg 17%
    19:00 +40°C° 0 mm 5 mps 750 mmHg 20%
    20:00 +38°C° 0 mm 4 mps 750 mmHg 23%
    21:00 +36°C° 0 mm 3 mps 750 mmHg 26%
    22:00 +36°C° 0 mm 3 mps 750 mmHg 26%
    23:00 +35°C° 0 mm 3 mps 750 mmHg 27%

    Day after tomorrow, 8 June, Monday

    Time Temperature Precipitation Wind Pressure Humidity
    00:00 +35°C° 0 mm 3 mps 750 mmHg 27%
    01:00 +35°C° 0 mm 3 mps 750 mmHg 26%
    02:00 +35°C° 0 mm 4 mps 749 mmHg 25%
    03:00 +35°C° 0 mm 4 mps 749 mmHg 24%
    04:00 +35°C° 0 mm 4 mps 749 mmHg 26%
    05:00 +35°C° 0 mm 4 mps 750 mmHg 28%
    06:00 +35°C° 0 mm 4 mps 750 mmHg 30%
    07:00 +38°C° 0 mm 4 mps 750 mmHg 25%
    08:00 +42°C° 0 mm 5 mps 751 mmHg 20%
    09:00 +45°C° 0 mm 5 mps 751 mmHg 16%
    10:00 +47°C° 0 mm 6 mps 751 mmHg 14%
    11:00 +48°C° 0 mm 6 mps 751 mmHg 12%
    12:00 +50°C° 0 mm 7 mps 750 mmHg 10%
    13:00 +50°C° 0 mm 7 mps 750 mmHg 9%
    14:00 +50°C° 0 mm 7 mps 750 mmHg 8%
    15:00 +50°C° 0 mm 7 mps 749 mmHg 8%
    16:00 +47°C° 0 mm 6 mps 749 mmHg 9%
    17:00 +46°C° 0 mm 5 mps 750 mmHg 10%
    18:00 +43°C° 0 mm 4 mps 750 mmHg 11%
    19:00 +41°C° 0 mm 4 mps 750 mmHg 13%
    20:00 +38°C° 0 mm 3 mps 750 mmHg 15%
    21:00 +37°C° 0 mm 2 mps 750 mmHg 17%
    22:00 +35°C° 0 mm 2 mps 750 mmHg 20%
    23:00 +33°C° 0 mm 1 mps 750 mmHg 23%

    9 June, Tuesday

    Time Temperature Precipitation Wind Pressure Humidity
    00:00 +32°C° 0 mm 1 mps 750 mmHg 25%
    01:00 +32°C° 0 mm 1 mps 750 mmHg 24%
    02:00 +32°C° 0 mm 1 mps 750 mmHg 23%
    03:00 +32°C° 0 mm 2 mps 750 mmHg 21%
    04:00 +34°C° 0 mm 2 mps 750 mmHg 19%
    05:00 +35°C° 0 mm 2 mps 751 mmHg 16%
    06:00 +36°C° 0 mm 2 mps 751 mmHg 14%
    07:00 +39°C° 0 mm 3 mps 752 mmHg 12%
    08:00 +43°C° 0 mm 3 mps 752 mmHg 10%
    09:00 +47°C° 0 mm 4 mps 752 mmHg 8%
    10:00 +48°C° 0 mm 4 mps 752 mmHg 8%
    11:00 +49°C° 0 mm 5 mps 752 mmHg 7%
    12:00 +50°C° 0 mm 5 mps 751 mmHg 7%
    13:00 +51°C° 0 mm 6 mps 751 mmHg 7%
    14:00 +51°C° 0 mm 7 mps 751 mmHg 7%
    15:00 +51°C° 0 mm 7 mps 750 mmHg 7%
    16:00 +47°C° 0 mm 6 mps 750 mmHg 11%
    17:00 +45°C° 0 mm 6 mps 750 mmHg 15%
    18:00 +42°C° 0 mm 5 mps 750 mmHg 18%
    19:00 +40°C° 0 mm 4 mps 751 mmHg 22%
    20:00 +37°C° 0 mm 3 mps 751 mmHg 26%
    21:00 +35°C° 0 mm 3 mps 751 mmHg 30%
    22:00 +34°C° 0 mm 2 mps 751 mmHg 34%
    23:00 +32°C° 0 mm 2 mps 751 mmHg 37%

    10 June, Wednesday

    Time Temperature Precipitation Wind Pressure Humidity
    00:00 +31°C° 0 mm 2 mps 750 mmHg 41%
    01:00 +30°C° 0 mm 1 mps 750 mmHg 41%
    02:00 +30°C° 0 mm 1 mps 750 mmHg 41%
    03:00 +29°C° 0 mm 1 mps 750 mmHg 41%
    04:00 +30°C° 0 mm 1 mps 750 mmHg 36%
    05:00 +32°C° 0 mm 1 mps 750 mmHg 32%
    06:00 +33°C° 0 mm 1 mps 751 mmHg 27%
    07:00 +35°C° 0 mm 1 mps 751 mmHg 23%
    08:00 +39°C° 0 mm 2 mps 751 mmHg 18%
    09:00 +42°C° 0 mm 2 mps 752 mmHg 14%
    10:00 +44°C° 0 mm 3 mps 751 mmHg 13%
    11:00 +46°C° 0 mm 3 mps 751 mmHg 12%
    12:00 +48°C° 0 mm 4 mps 751 mmHg 11%
    13:00 +48°C° 0 mm 4 mps 750 mmHg 11%
    14:00 +48°C° 0 mm 5 mps 750 mmHg 12%
    15:00 +49°C° 0 mm 5 mps 750 mmHg 12%
    16:00 +47°C° 0 mm 5 mps 750 mmHg 14%
    17:00 +44°C° 0 mm 4 mps 749 mmHg 17%
    18:00 +42°C° 0 mm 4 mps 749 mmHg 19%
    19:00 +40°C° 0 mm 4 mps 750 mmHg 21%
    20:00 +38°C° 0 mm 3 mps 750 mmHg 23%
    21:00 +36°C° 0 mm 2 mps 750 mmHg 25%
    22:00 +35°C° 0 mm 2 mps 750 mmHg 26%
    23:00 +35°C° 0 mm 2 mps 750 mmHg 27%

    11 June, Thursday

    Time Temperature Precipitation Wind Pressure Humidity
    00:00 +34°C° 0 mm 2 mps 749 mmHg 28%
    01:00 +32°C° 0 mm 2 mps 749 mmHg 30%
    02:00 +31°C° 0 mm 1 mps 749 mmHg 32%
    03:00 +29°C° 0 mm 0 mps 749 mmHg 34%
    04:00 +32°C° 0 mm 1 mps 749 mmHg 32%
    05:00 +33°C° 0 mm 1 mps 749 mmHg 29%
    06:00 +34°C° 0 mm 1 mps 749 mmHg 27%
    07:00 +37°C° 0 mm 1 mps 749 mmHg 21%
    08:00 +41°C° 0 mm 2 mps 750 mmHg 16%
    09:00 +45°C° 0 mm 2 mps 750 mmHg 10%
    10:00 +47°C° 0 mm 2 mps 750 mmHg 9%
    11:00 +47°C° 0 mm 1 mps 749 mmHg 8%
    12:00 +49°C° 0 mm 1 mps 749 mmHg 7%
    13:00 +50°C° 0 mm 2 mps 749 mmHg 7%
    14:00 +51°C° 0 mm 3 mps 748 mmHg 7%
    15:00 +51°C° 0 mm 4 mps 748 mmHg 7%
    16:00 +49°C° 0 mm 4 mps 748 mmHg 10%
    17:00 +47°C° 0 mm 5 mps 748 mmHg 12%
    18:00 +45°C° 0 mm 5 mps 748 mmHg 14%
    19:00 +42°C° 0 mm 5 mps 748 mmHg 17%
    20:00 +40°C° 0 mm 4 mps 749 mmHg 19%
    21:00 +37°C° 0 mm 3 mps 749 mmHg 21%
    22:00 +36°C° 0 mm 3 mps 749 mmHg 22%
    23:00 +35°C° 0 mm 2 mps 748 mmHg 23%
    Show more